Regional Weather Roundup
Issued by NWS

Home | Current Version | Previous Version | Graphics & Text | Print | Product List | Glossary On
Versions: 1 2 3 4 5 6 7 8 9 10 11 12 13 14 15 16 17 18 19 20 21 22 23 24 25 26 27 28 29 30 31 32 33 34 35 36 37 38 39 40 41 42 43 44 45 46 47 48 49 50
000
ASUS43 KLSX 262310
RWRMO

WEATHER SUMMARY FOR MISSOURI
NATIONAL WEATHER SERVICE SPRINGFIELD MO
600 PM CDT MON JUN 26 2017

NOTE: "FAIR" INDICATES FEW OR NO CLOUDS BELOW 12,000 FEET WITH NO
       SIGNIFICANT WEATHER AND/OR OBSTRUCTIONS TO VISIBILITY.
       CURRENT SKY AND/OR WEATHER CONDITIONS ARE NOT AVAILABLE FOR
       CHILLICOTHE AND FARMINGTON.

MOZ001>031-035>038-043-044-053-054-270000-
...NORTHERN AND WESTERN MISSOURI...

CITY           SKY/WX    TMP DP  RH WIND       PRES   REMARKS
KANSAS CTY INT CLOUDY    70  56  61 CALM      30.13R
KANSAS C DTWN  MOSUNNY   73  53  49 S5        30.10F
LEE`S SUMMIT   PTSUNNY   73  53  49 S10       30.11F
ST JOSEPH      CLOUDY    67  61  81 NW3       30.14R
CHILLICOTHE      N/A     70  58  65 VRB3      30.12F
KIRKSVILLE     SUNNY     72  54  53 W7        30.10F

$$
MOZ066>068-077>081-088>096-101>105-270000-
...SOUTHWEST MISSOURI...

CITY           SKY/WX    TMP DP  RH WIND       PRES   REMARKS
SPRINGFIELD    CLOUDY    67  61  81 E16       30.12F
JOPLIN         MOSUNNY   74  64  71 E9        30.08F
BRANSON        PTSUNNY   75  64  69 E5        30.11F

$$
MOZ032>034-039>042-045>050-055>058-069>072-270000-
...CENTRAL MISSOURI...

CITY           SKY/WX    TMP DP  RH WIND       PRES   REMARKS
COLUMBIA       SUNNY     68  60  75 SW6       30.12F
JEFFERSON CITY CLOUDY    66  58  75 VRB3      30.11F
ROLLA          LGT RAIN  62  58  86 S12       30.10F
SEDALIA        SUNNY     69  61  75 SE6       30.12F
WHITEMAN AFB   PTSUNNY   68  64  88 E3        30.10F
WARRENSBURG    MOSUNNY   72  55  56 S7        30.10F
OSAGE BEACH    CLOUDY    65  56  72 S5        30.14F

$$
MOZ051-052-059>065-270000-
...EAST CENTRAL MISSOURI...

CITY           SKY/WX    TMP DP  RH WIND       PRES   REMARKS
ST LOUIS INTL  CLOUDY    74  49  41 W10       30.11F
SPIRIT OF STL  CLOUDY    68  54  60 SW15      30.10F
ST CHARLES     CLOUDY    73  49  42 W9        30.09F

$$
MOZ072>076-082>087-097>100-106>115-270000-
...SOUTH CENTRAL AND SOUTHEAST MISSOURI...

CITY           SKY/WX    TMP DP  RH WIND       PRES   REMARKS
CAPE GIRARDEAU CLOUDY    74  54  49 S3        30.12R
FARMINGTON     LGT RAIN  67  57  70 CALM      30.16R
POPLAR BLUFF   LGT RAIN  69  65  86 NW10      30.13R
WEST PLAINS    LGT RAIN  63  61  93 NE13      30.18R

$$




USA.gov is the U.S. government's official web portal to all federal, state and local government web resources and services.